User: anonymous   Login
Location: Unspecified
(0.0000°N, 0.0000°E)
Time: 17:45:58
(UTC+00:00)
Language:

SRMSAT - Orbit

View from above orbital plane
View from above orbital plane
View from above satellite
View from above satellite

Ground track
Ground track

The orbit data is extracted from the following two-line orbital elements,

1 37841U 11058D   22224.58299782  .00000338  00000-0  40672-4 0  9997
2 37841  19.9717 275.6385 0011649 240.6829 274.7167 14.10765015559404
Epoch (UTC): 12 August 2022 13:59:31
Eccentricity: 0.0011649
inclination: 19.9717°
perigee height: 848 km
apogee height: 865 km
right ascension of ascending node: 275.6385°
argument of perigee: 240.6829°
revolutions per day: 14.10765015
mean anomaly at epoch: 274.7167°
orbit number at epoch: 55940

The dashed part of the orbit path shows where the satellite is in the earth's shadow,  

DLR